Lambertville, MI

9:08 AM EST on January 16, 2018 (GMT -0500)
Lambertville

Weather History for KDUH - October, 2011

Change the Weather History Date:

Wednesday, October 19, 2011

  Actual Average (KTOL) Record (KTOL)
Temperature  
Mean Temperature 48 °F -  
Max Temperature 50 °F 57 °F 85 °F (1953)
Min Temperature 46 °F 37 °F 21 °F (1972)
Degree Days  
Heating Degree Days 17    
Moisture  
Dew Point 45 °F    
Average Humidity 89    
Maximum Humidity 93    
Minimum Humidity 87    
Precipitation  
Precipitation 0.00 in - - ()
Sea Level Pressure  
Sea Level Pressure 29.54 in    
Wind  
Wind Speed 8 mph (NNE)    
Max Wind Speed 14 mph    
Max Gust Speed 23 mph    
Visibility 7 miles    
Events Rain    
Averages and records for this station are not official NWS values.
T = Trace of Precipitation, MM = Missing Value Source: NWS Daily Summary

Daily Weather History Graph

Daily Weather History Graph

Search for Another Location

Airport or City:

Trip Planner

Search our weather history database for the weather conditions in past years. The results will help you decide how hot, cold, wet, or windy it might be!

Date:

Astronomy

Oct. 19, 2011 Rise Set
Actual Time 7:51 AM EDT 6:47 PM EDT
Civil Twilight 7:22 AM EDT 7:15 PM EDT
Nautical Twilight 6:50 AM EDT 7:47 PM EDT
Astronomical Twilight 6:18 AM EDT 8:20 PM EDT
Moon No Moon Rise 2:23 PM EDT (10/19)
Length of Visible Light 11h 52m
Length of Day
10h 56m
Waning Gibbous, 55% of the Moon is Illuminated
Oct 19
Waning Gibbous
Oct 19
Last Quarter
Oct 26
New
Nov 2
First Quarter
Nov 10
Full

Hourly Weather History & Observations

Time (EDT) Temp. Windchill Dew Point Humidity Pressure Visibility Wind Dir Wind Speed Gust Speed Precip Events Conditions
12:15 AM 46.4 °F 44.3 °F 42.8 °F 87% 29.77 in 10.0 mi North 4.6 mph - N/A   Overcast
12:35 AM 46.4 °F 45.2 °F 42.8 °F 87% 29.76 in 7.0 mi NNE 3.5 mph - N/A   Light Drizzle
12:55 AM 46.4 °F 44.3 °F 42.8 °F 87% 29.75 in 10.0 mi NNE 4.6 mph - N/A Rain Light Rain
1:35 AM 46.4 °F 41.9 °F 42.8 °F 87% 29.72 in 7.0 mi NNE 9.2 mph - N/A Rain Rain
1:55 AM 46.4 °F 41.5 °F 42.8 °F 87% 29.72 in 7.0 mi NNE 10.4 mph - N/A   Overcast
2:15 AM 46.4 °F 42.9 °F 42.8 °F 87% 29.71 in 7.0 mi NNE 6.9 mph - N/A Rain Light Rain
2:35 AM 46.4 °F 42.4 °F 42.8 °F 87% 29.72 in 7.0 mi NNE 8.1 mph - N/A   Light Drizzle
2:55 AM 46.4 °F 42.4 °F 42.8 °F 87% 29.70 in 7.0 mi NNE 8.1 mph - N/A   Overcast
3:15 AM 46.4 °F 43.5 °F 42.8 °F 87% 29.69 in 7.0 mi NNE 5.8 mph - N/A   Overcast
3:35 AM 46.4 °F 41.9 °F 42.8 °F 87% 29.68 in 7.0 mi NNE 9.2 mph - N/A   Overcast
4:15 AM 46.4 °F 41.5 °F 44.6 °F 93% 29.66 in 7.0 mi NNE 10.4 mph 16.1 mph N/A Rain Light Rain
4:35 AM 46.4 °F 41.9 °F 44.6 °F 93% 29.66 in 7.0 mi NE 9.2 mph - N/A   Overcast
4:55 AM 46.4 °F 42.4 °F 44.6 °F 93% 29.65 in 7.0 mi NNE 8.1 mph 17.3 mph N/A   Overcast
5:35 AM 46.4 °F 41.1 °F 44.6 °F 93% 29.62 in 10.0 mi NE 11.5 mph - N/A   Overcast
5:55 AM 46.4 °F 41.9 °F 44.6 °F 93% 29.62 in 10.0 mi NE 9.2 mph 17.3 mph N/A   Overcast
6:15 AM 46.4 °F 41.5 °F 44.6 °F 93% 29.62 in 10.0 mi NE 10.4 mph - N/A Rain Light Rain
6:35 AM 46.4 °F 41.5 °F 44.6 °F 93% 29.60 in 10.0 mi NE 10.4 mph 16.1 mph N/A Rain Light Rain
6:55 AM 46.4 °F 41.5 °F 44.6 °F 93% 29.62 in 10.0 mi NNE 10.4 mph - N/A   Light Drizzle
7:15 AM 46.4 °F 42.4 °F 44.6 °F 93% 29.62 in 10.0 mi NNE 8.1 mph - N/A Rain Light Rain
7:35 AM 46.4 °F 41.1 °F 44.6 °F 93% 29.61 in 10.0 mi NE 11.5 mph 19.6 mph N/A Rain Light Rain
7:55 AM 46.4 °F 40.7 °F 44.6 °F 93% 29.60 in 10.0 mi NE 12.7 mph 18.4 mph N/A   Overcast
8:35 AM 46.4 °F 41.1 °F 44.6 °F 93% 29.58 in 7.0 mi NE 11.5 mph 19.6 mph N/A   Overcast
8:55 AM 48.2 °F - 44.6 °F 87% 29.60 in 7.0 mi NNE 9.2 mph - N/A   Overcast
9:15 AM 48.2 °F - 44.6 °F 87% 29.57 in 7.0 mi NE 11.5 mph 20.7 mph N/A   Overcast
9:35 AM 48.2 °F - 44.6 °F 87% 29.58 in 7.0 mi NNE 9.2 mph 21.9 mph N/A   Overcast
9:55 AM 48.2 °F - 44.6 °F 87% 29.57 in 7.0 mi NE 11.5 mph 16.1 mph N/A   Overcast
10:15 AM 48.2 °F - 44.6 °F 87% 29.57 in 7.0 mi NE 6.9 mph 16.1 mph N/A Rain Light Rain
10:35 AM 48.2 °F - 44.6 °F 87% 29.54 in 5.0 mi ENE 10.4 mph 18.4 mph N/A Rain Rain
10:55 AM 48.2 °F - 44.6 °F 87% 29.53 in 5.0 mi ENE 9.2 mph 19.6 mph N/A Rain Light Rain
11:15 AM 48.2 °F - 46.4 °F 93% 29.53 in 4.0 mi ENE 6.9 mph 17.3 mph N/A Rain Rain
11:35 AM 50.0 °F - 46.4 °F 87% 29.52 in 5.0 mi NE 10.4 mph - N/A Rain Light Rain
11:55 AM 50.0 °F - 46.4 °F 87% 29.52 in 5.0 mi NE 9.2 mph - N/A Rain Light Rain
12:15 PM 50.0 °F - 46.4 °F 87% 29.52 in 5.0 mi NE 6.9 mph - N/A Rain Light Rain
12:55 PM 50.0 °F - 46.4 °F 87% 29.50 in 5.0 mi NE 12.7 mph 17.3 mph N/A Rain Rain
1:15 PM 50.0 °F - 46.4 °F 87% 29.49 in 5.0 mi NE 9.2 mph 18.4 mph N/A Rain Light Rain
1:35 PM 50.0 °F - 46.4 °F 87% 29.48 in 7.0 mi NE 11.5 mph 17.3 mph N/A Rain Light Rain
1:55 PM 50.0 °F - 46.4 °F 87% 29.48 in 5.0 mi NE 11.5 mph 18.4 mph N/A Rain Rain
2:15 PM 50.0 °F - 46.4 °F 87% 29.46 in 4.0 mi NNE 10.4 mph 19.6 mph N/A Rain Rain
2:35 PM 48.2 °F - 46.4 °F 93% 29.42 in 3.0 mi NNE 13.8 mph 20.7 mph N/A Rain Rain
2:55 PM 50.0 °F - 46.4 °F 87% 29.42 in 5.0 mi NE 9.2 mph 19.6 mph N/A Rain Light Rain
3:15 PM 50.0 °F - 46.4 °F 87% 29.41 in 7.0 mi NNE 13.8 mph 19.6 mph N/A Rain Rain
4:15 PM 50.0 °F - 46.4 °F 87% 29.39 in 7.0 mi NNE 12.7 mph 23.0 mph N/A Rain Rain
4:35 PM 50.0 °F - 46.4 °F 87% 29.38 in 5.0 mi NNE 13.8 mph 18.4 mph N/A Rain Heavy Rain
4:55 PM 50.0 °F - 46.4 °F 87% 29.37 in 7.0 mi NNE 8.1 mph 17.3 mph N/A Rain Light Rain
5:15 PM 50.0 °F - 46.4 °F 87% 29.37 in 5.0 mi NNE 10.4 mph 19.6 mph N/A Rain Rain
5:35 PM 50.0 °F - 46.4 °F 87% 29.37 in 5.0 mi NNE 8.1 mph - N/A Rain Heavy Rain
5:55 PM 50.0 °F - 46.4 °F 87% 29.36 in 5.0 mi NNE 6.9 mph 17.3 mph N/A Rain Rain
6:15 PM 50.0 °F - 46.4 °F 87% 29.35 in 4.0 mi NNE 8.1 mph 16.1 mph N/A Rain Rain
6:35 PM 50.0 °F - 46.4 °F 87% 29.34 in 7.0 mi North 5.8 mph - N/A Rain Rain
6:55 PM 50.0 °F - 46.4 °F 87% 29.33 in 7.0 mi North 10.4 mph 16.1 mph N/A Rain Rain
7:15 PM 50.0 °F - 46.4 °F 87% 29.32 in 7.0 mi North 9.2 mph 18.4 mph N/A Rain Rain
7:35 PM 50.0 °F - 46.4 °F 87% 29.31 in 7.0 mi North 9.2 mph 18.4 mph N/A Rain Rain
7:55 PM 50.0 °F - 46.4 °F 87% 29.29 in 7.0 mi North 9.2 mph - N/A Rain Rain
8:15 PM 50.0 °F - 46.4 °F 87% 29.29 in 7.0 mi North 6.9 mph 18.4 mph N/A Rain Heavy Rain
8:55 PM 50.0 °F - 46.4 °F 87% 29.26 in 7.0 mi NNE 13.8 mph 20.7 mph N/A Rain Rain
9:15 PM 50.0 °F - 46.4 °F 87% 29.25 in 5.0 mi NNE 11.5 mph 17.3 mph N/A Rain Heavy Rain
9:35 PM 50.0 °F - 46.4 °F 87% 29.24 in 5.0 mi North 12.7 mph 17.3 mph N/A Rain Heavy Rain
9:55 PM 50.0 °F - 46.4 °F 87% 29.21 in 5.0 mi North 9.2 mph 20.7 mph N/A Rain Heavy Rain
10:15 PM 50.0 °F - 46.4 °F 87% 29.20 in 7.0 mi North 12.7 mph 20.7 mph N/A Rain Rain
10:35 PM 50.0 °F - 46.4 °F 87% 29.18 in 7.0 mi North 16.1 mph 24.2 mph N/A Rain Rain
10:55 PM 50.0 °F - 46.4 °F 87% 29.17 in 5.0 mi North 13.8 mph 19.6 mph N/A Rain Heavy Rain
11:15 PM 50.0 °F - 46.4 °F 87% 29.16 in 5.0 mi North 11.5 mph 17.3 mph N/A Rain Rain
11:35 PM 50.0 °F - 46.4 °F 87% 29.14 in 7.0 mi North 10.4 mph 19.6 mph N/A Rain Rain
11:55 PM 50.0 °F - 46.4 °F 87% 29.12 in 5.0 mi North 13.8 mph 20.7 mph N/A Rain Rain